Location: Hilton Head Island
(32.2163°N, 80.7526°W)
Time: 20:52:57
(UTC-04:00)

Tiros 1 despin weight - Pass Details

Date: 25 February 2026
Orbit: 556 x 593 km, 48.2° (Epoch: 10 March)

Event Time Altitude Azimuth Distance (km) Brightness Sun altitude
Rises 13:49:01 0° 287° (WNW) 2,756 ? 45.4°
Reaches altitude 10° 13:52:33 10° 318° (NW) 1,852 ? 45.0°
Maximum altitude 13:54:23 12° 343° (NNW) 1,693 ? 44.9°
Drops below altitude 10° 13:56:13 10° 9° (N) 1,845 ? 44.7°
Sets 13:59:43 0° 40° (NE) 2,736 ? 44.3°
